Location: Delettes
(50.6178°N, 2.2123°E)
Time: 22:43:20
(UTC+00:00)

SL-08 RB Rocket - Pass Details

Date: 27 February 2020
Orbit: 648 x 683 km, 97.8° (Epoch: 09 April)

Event Time Altitude Azimuth Distance (km) Brightness Sun altitude
Exits shadow 19:42:35 41° 164° (SSE) 943 4.2 -22.0°
Maximum altitude 19:44:08 89° 86° (E) 658 3.5 -22.2°
Drops below altitude 10° 19:48:39 10° 346° (NNW) 2,064 6.6 -22.9°
Sets 19:50:52 0° 347° (NNW) 2,978 7.5 -23.2°
